Location: Horowhenua
(40.7500°S, 175.3333°E)
Time: 04:51:10
(UTC+00:00)

Cosmos 1833 Rocket - Pass Details

Date: 28 January 2023
Orbit: 831 x 841 km, 71.0° (Epoch: 01 April)

Event Time Altitude Azimuth Distance (km) Brightness Sun altitude
Rises 13:41:43 0° 217° (SW) 3,422 6.3 -28.9°
Reaches altitude 10° 13:44:38 10° 230° (SW) 2,477 5.3 -28.7°
Enters shadow 13:46:54 19° 251° (WSW) 1,913 4.5 -28.5°
